EW7349 Weather Reports


time (UTC)temp
F
wind
direction
speed
knots
gust
knots
rain 1hr
in
rain 24hr
in
rain mn
in
humidity
%
barometer
mb
20260510224409 69 87 0.9 7.0 0.00 0.00 0.00 77 1013.4
20260510223910 70 76 1.7 7.0 0.00 0.00 0.00 75 1013.4
20260510223409 70 107 1.7 7.0 0.00 0.00 0.00 74 1013.5
20260510222906 71 79 1.7 7.8 0.00 0.00 0.00 72 1013.7
20260510222407 71 54 1.7 7.8 0.00 0.00 0.00 71 1013.6
20260510221906 72 51 0.9 2.6 0.00 0.00 0.00 71 1013.5
20260510221637 72 70 0.9 2.6 0.00 0.00 0.00 68 1013.2
20260510220909 73 26 0.9 1.7 0.00 0.00 0.00 66 1013.4
20260510220405 73 340 0.9 1.7 0.00 0.00 0.00 64 1013.5
20260510215905 74 296 0.0 1.7 0.00 0.00 0.00 61 1013.2
20260510215359 74 52 0.0 2.6 0.00 0.00 0.00 58 1012.9
20260510214853 74 89 0.9 4.3 0.00 0.00 0.00 57 1012.6
20260510214349 75 103 1.7 7.0 0.00 0.00 0.00 57 1012.4
20260510213841 75 74 1.7 7.0 0.00 0.00 0.00 56 1012.3
20260510213335 75 44 0.9 5.2 0.00 0.00 0.00 54 1012.3
20260510212829 76 284 1.7 6.1 0.00 0.00 0.00 53 1012.3
20260510212324 76 71 2.6 6.1 0.00 0.00 0.00 52 1012.3
20260510211817 77 39 2.6 8.7 0.00 0.00 0.00 51 1012.2
20260510211311 78 97 1.7 8.7 0.00 0.00 0.00 50 1012.2
20260510210805 79 111 2.6 7.8 0.00 0.00 0.00 48 1012.2
20260510210259 80 89 2.6 7.8 0.00 0.00 0.00 46 1012.2
20260510205753 80 101 0.9 5.2 0.00 0.00 0.00 44 1012.0
20260510205246 80 340 0.9 3.5 0.00 0.00 0.00 47 1011.8
20260510204742 80 26 0.0 1.7 0.00 0.00 0.00 47 1011.7
20260510204235 80 26 0.0 1.7 0.00 0.00 0.00 43 1011.6
20260510203729 80 19 0.0 2.6 0.00 0.00 0.00 44 1011.5
20260510203223 82 24 0.9 2.6 0.00 0.00 0.00 39 1011.5
20260510202939 82 263 0.9 3.5 0.00 0.00 0.00 39 1011.4
20260510202211 81 240 0.0 3.5 0.00 0.00 0.00 39 1011.4
20260510201705 80 218 0.0 1.7 0.00 0.00 0.00 40 1011.4
20260510201159 81 279 0.0 2.6 0.00 0.00 0.00 44 1011.4
20260510200921 81 279 0.0 2.6 0.00 0.00 0.00 40 1011.3
20260510200409 81 239 0.9 2.6 0.00 0.00 0.00 38 1011.4
20260510195643 81 110 0.0 2.6 0.00 0.00 0.00 38 1011.5
20260510195136 82 240 0.0 1.7 0.00 0.00 0.00 38 1011.6
20260510194630 82 188 0.9 2.6 0.00 0.00 0.00 39 1011.6
20260510194346 82 191 0.9 4.3 0.00 0.00 0.00 36 1011.6
20260510193839 83 344 0.9 4.3 0.00 0.00 0.00 35 1011.6
20260510193112 85 265 1.7 5.2 0.00 0.00 0.00 34 1011.7
20260510192830 84 306 1.7 5.2 0.00 0.00 0.00 33 1011.9
20260510192104 85 113 1.7 6.1 0.00 0.00 0.00 33 1011.8
20260510192038 85 72 0.9 6.1 0.00 0.00 0.00 33 1011.9
20260510191107 85 119 1.7 6.1 0.00 0.00 0.00 36 1012.0
20260510190602 84 114 1.7 6.1 0.00 0.00 0.00 34 1012.2
20260510185558 82 28 0.9 6.1 0.00 0.00 0.00 37 1012.3
20260510185100 82 222 0.9 6.1 0.00 0.00 0.00 39 1012.2
20260510184559 83 242 0.9 2.6 0.00 0.00 0.00 33 1012.2
20260510184058 86 159 0.9 2.6 0.00 0.00 0.00 36 1012.3
20260510183559 84 131 0.9 3.5 0.00 0.00 0.00 36 1012.3
20260510183058 85 141 0.9 3.5 0.00 0.00 0.00 34 1012.3
20260510182556 85 250 0.9 3.5 0.00 0.00 0.00 35 1012.3
20260510182056 85 217 1.7 3.5 0.00 0.00 0.00 38 1012.4
20260510181559 85 140 1.7 3.5 0.00 0.00 0.00 37 1012.4
20260510181056 86 155 0.9 3.5 0.00 0.00 0.00 37 1012.5
20260510180814 85 113 0.9 3.5 0.00 0.00 0.00 38 1012.5
20260510180055 83 130 0.9 4.3 0.00 0.00 0.00 40 1012.6
20260510175549 84 216 0.9 4.3 0.00 0.00 0.00 37 1012.7
20260510175309 83 5 0.9 2.6 0.00 0.00 0.00 37 1012.7
20260510174543 83 49 0.9 2.6 0.00 0.00 0.00 37 1012.8
20260510174044 82 204 0.9 2.6 0.00 0.00 0.00 40 1012.8
20260510173544 81 34 0.9 2.6 0.00 0.00 0.00 38 1012.9
20260510173043 81 246 1.7 5.2 0.00 0.00 0.00 38 1013.0
20260510172544 84 235 1.7 5.2 0.00 0.00 0.00 38 1013.0
20260510172045 85 14 0.9 3.5 0.00 0.00 0.00 36 1013.0
20260510171544 85 57 0.9 3.5 0.00 0.00 0.00 36 1012.9
20260510171043 83 42 1.7 5.2 0.00 0.00 0.00 37 1013.0
20260510170545 83 31 1.7 5.2 0.00 0.00 0.00 37 1013.1
20260510170040 83 229 1.7 5.2 0.00 0.00 0.00 38 1013.0
20260510165540 84 254 0.9 5.2 0.00 0.00 0.00 39 1013.0
20260510165259 83 228 0.9 3.5 0.00 0.00 0.00 37 1013.0
20260510164810 83 332 0.9 2.6 0.00 0.00 0.00 40 1013.2
20260510164039 83 113 1.7 5.2 0.00 0.00 0.00 41 1013.2
20260510163540 81 32 1.7 5.2 0.00 0.00 0.00 41 1013.2
20260510163040 82 268 1.7 7.0 0.00 0.00 0.00 41 1013.2
20260510162540 80 109 0.9 7.0 0.00 0.00 0.00 41 1013.4
20260510162041 80 259 0.9 4.3 0.00 0.00 0.00 40 1013.4
20260510161540 80 258 0.9 4.3 0.00 0.00 0.00 41 1013.5
20260510161314 80 82 0.9 4.3 0.00 0.00 0.00 42 1013.5
20260510160541 80 71 0.9 5.2 0.00 0.00 0.00 41 1013.6
20260510160302 80 289 0.9 5.2 0.00 0.00 0.00 41 1013.6
20260510155540 78 32 1.7 5.2 0.00 0.00 0.00 44 1013.7
20260510155258 78 196 1.7 4.3 0.00 0.00 0.00 43 1013.7
20260510154806 78 217 0.9 3.5 0.00 0.00 0.00 42 1013.7
20260510154040 78 167 0.9 2.6 0.00 0.00 0.00 45 1013.7
20260510153804 78 342 0.9 3.5 0.00 0.00 0.00 47 1013.7
20260510153040 77 56 0.9 4.3 0.00 0.00 0.00 46 1013.8
20260510152757 77 237 0.9 4.3 0.00 0.00 0.00 48 1013.8
20260510152035 77 113 0.9 2.6 0.00 0.00 0.00 47 1013.7
20260510151531 76 143 0.9 4.3 0.00 0.00 0.00 47 1013.7
20260510151031 76 246 1.7 5.2 0.00 0.00 0.00 47 1013.8
20260510151019 75 229 1.7 5.2 0.00 0.00 0.00 49 1013.7
20260510150251 75 254 0.9 2.6 0.00 0.00 0.00 47 1013.7
20260510145527 75 246 0.9 2.6 0.00 0.00 0.00 48 1013.6
20260510145025 75 132 0.9 3.5 0.00 0.00 0.00 49 1013.6
20260510144525 74 226 0.9 3.5 0.00 0.00 0.00 52 1013.6
20260510144027 74 90 0.9 5.2 0.00 0.00 0.00 51 1013.5
20260510143523 73 68 0.9 5.2 0.00 0.00 0.00 49 1013.6
20260510143024 73 297 0.9 3.5 0.00 0.00 0.00 51 1013.5
20260510142526 73 248 0.0 3.5 0.00 0.00 0.00 54 1013.4
20260510142023 72 73 0.9 1.7 0.00 0.00 0.00 53 1013.2
20260510141741 71 245 0.9 1.7 0.00 0.00 0.00 54 1013.2
20260510141021 70 222 0.9 1.7 0.00 0.00 0.00 60 1013.2
20260510140519 69 99 0.9 2.6 0.00 0.00 0.00 58 1013.1
20260510140019 69 153 0.9 2.6 0.00 0.00 0.00 58 1013.2
20260510135516 69 290 0.9 2.6 0.00 0.00 0.00 62 1013.0
20260510135225 65 239 0.9 2.6 0.00 0.00 0.00 64 1013.1
20260510135109 67 209 0.9 2.6 0.00 0.00 0.00 62 1013.1
20260510134009 65 309 0.9 2.6 0.00 0.00 0.00 68 1013.1
20260510133503 64 229 0.9 2.6 0.00 0.00 0.00 69 1013.1
20260510133446 63 245 0.9 2.6 0.00 0.00 0.00 71 1013.1
20260510132449 63 132 0.9 2.6 0.00 0.00 0.00 73 1013.1
20260510132431 62 281 0.0 1.7 0.00 0.00 0.00 75 1013.1
20260510131439 61 5 0.0 1.7 0.00 0.00 0.00 77 1013.0
20260510130934 61 223 0.0 1.7 0.00 0.00 0.00 80 1013.0
20260510130426 60 215 0.0 1.7 0.00 0.00 0.00 81 1013.0
20260510125921 59 213 0.0 1.7 0.00 0.00 0.00 82 1013.1
20260510125414 59 212 0.0 1.7 0.00 0.00 0.00 83 1013.2
20260510124909 58 248 0.0 0.9 0.00 0.00 0.00 84 1013.2
20260510124402 58 248 0.0 0.9 0.00 0.00 0.00 86 1013.4
20260510123856 57 309 0.0 0.9 0.00 0.00 0.00 88 1013.5
20260510123350 57 312 0.0 2.6 0.00 0.00 0.00 88 1013.5
20260510122845 56 312 0.9 2.6 0.00 0.00 0.00 89 1013.5
20260510122338 56 241 0.9 2.6 0.00 0.00 0.00 90 1013.4
20260510121832 55 242 0.0 1.7 0.00 0.00 0.00 91 1013.2
20260510121326 55 205 0.0 0.9 0.00 0.00 0.00 91 1013.2
20260510120821 55 269 0.0 0.9 0.00 0.00 0.00 91 1013.1
20260510120314 54 227 0.0 1.7 0.00 0.00 0.00 91 1013.1
20260510115808 54 265 0.0 1.7 0.00 0.00 0.00 91 1013.1
20260510115305 54 198 0.0 1.7 0.00 0.00 0.00 91 1013.0
20260510114755 53 200 0.0 1.7 0.00 0.00 0.00 91 1012.9
20260510114731 53 215 0.0 3.5 0.00 0.00 0.00 91 1012.8
20260510113744 53 215 0.0 3.5 0.00 0.00 0.00 91 1012.8
20260510113240 53 211 0.0 0.9 0.00 0.00 0.00 90 1012.7
20260510112733 53 211 0.0 0.9 0.00 0.00 0.00 90 1012.7
20260510112226 53 211 0.0 0.0 0.00 0.00 0.00 90 1012.6
20260510111721 53 211 0.0 0.0 0.00 0.00 0.00 90 1012.4
20260510111431 53 211 0.0 0.0 0.00 0.00 0.00 90 1012.3
20260510110704 53 211 0.0 0.9 0.00 0.00 0.00 89 1012.2
20260510110158 53 211 0.0 0.9 0.00 0.00 0.00 89 1012.2
20260510105653 53 211 0.0 0.9 0.00 0.00 0.00 89 1012.1
20260510105629 53 211 0.0 0.9 0.00 0.00 0.00 89 1012.0
20260510104640 53 211 0.0 0.0 0.00 0.00 0.00 89 1012.0
20260510104400 53 211 0.0 0.0 0.00 0.00 0.00 89 1011.9
20260510103850 53 211 0.0 0.0 0.00 0.00 0.00 88 1011.8
20260510103122 53 211 0.0 0.0 0.00 0.00 0.00 88 1011.8
20260510102617 53 211 0.0 0.0 0.00 0.00 0.00 88 1011.7
20260510102110 53 211 0.0 0.0 0.00 0.00 0.00 88 1011.6
20260510101604 53 211 0.0 0.0 0.00 0.00 0.00 88 1011.6
20260510101058 53 211 0.0 0.0 0.00 0.00 0.00 88 1011.6
20260510100552 53 211 0.0 0.0 0.00 0.00 0.00 88 1011.6
20260510100046 53 211 0.0 0.0 0.00 0.00 0.00 88 1011.6
20260510095541 53 211 0.0 0.0 0.00 0.00 0.00 88 1011.6
20260510095034 53 211 0.0 0.0 0.00 0.00 0.00 88 1011.6
20260510094528 53 211 0.0 0.9 0.00 0.00 0.00 89 1011.6
20260510094023 53 211 0.0 0.9 0.00 0.00 0.00 89 1011.5
20260510093516 53 211 0.0 0.9 0.00 0.00 0.00 88 1011.4
20260510093011 53 211 0.0 0.0 0.00 0.00 0.00 88 1011.4
20260510092504 53 211 0.0 0.0 0.00 0.00 0.00 88 1011.3
20260510091958 54 211 0.0 0.0 0.00 0.00 0.00 88 1011.3
20260510091452 54 211 0.0 0.0 0.00 0.00 0.00 88 1011.3
20260510090946 54 211 0.0 0.0 0.00 0.00 0.00 88 1011.3
20260510090440 54 211 0.0 0.0 0.00 0.00 0.00 88 1011.2
20260510085934 54 211 0.0 0.0 0.00 0.00 0.00 88 1011.1
20260510085428 54 211 0.0 0.0 0.00 0.00 0.00 88 1011.1
20260510084922 54 211 0.0 0.0 0.00 0.00 0.00 88 1011.1
20260510084728 54 211 0.0 0.0 0.00 0.00 0.00 88 1011.1
20260510084637 54 211 0.0 0.0 0.00 0.00 0.00 88 1011.1
20260510083405 54 211 0.0 0.0 0.00 0.00 0.00 88 1011.1
20260510082904 54 211 0.0 0.0 0.00 0.00 0.00 87 1011.0
20260510082622 54 211 0.0 0.0 0.00 0.00 0.00 87 1010.9
20260510082122 54 211 0.0 0.0 0.00 0.00 0.00 87 1011.0
20260510081403 54 211 0.0 0.9 0.00 0.00 0.00 87 1011.0
20260510081124 54 211 0.0 0.9 0.00 0.00 0.00 86 1011.0
20260510080626 54 209 0.0 0.9 0.00 0.00 0.00 86 1010.9
20260510080119 55 209 0.0 0.0 0.00 0.00 0.00 86 1010.8
20260510075356 55 209 0.0 0.0 0.00 0.00 0.00 86 1010.8
20260510074859 55 209 0.0 0.0 0.00 0.00 0.00 86 1010.8
20260510074358 55 209 0.0 0.0 0.00 0.00 0.00 86 1010.6
20260510073856 55 209 0.0 0.0 0.00 0.00 0.00 85 1010.6
20260510073620 55 209 0.0 0.0 0.00 0.00 0.00 85 1010.5
20260510072853 55 209 0.0 0.0 0.00 0.00 0.00 85 1010.5
20260510072355 56 209 0.0 0.0 0.00 0.00 0.00 84 1010.6
20260510071851 56 209 0.0 0.0 0.00 0.00 0.00 84 1010.5
20260510071349 56 209 0.0 0.0 0.00 0.00 0.00 84 1010.5
20260510071117 56 209 0.0 0.0 0.00 0.00 0.00 84 1010.4
20260510070350 56 209 0.0 0.0 0.00 0.00 0.00 84 1010.3
20260510065849 56 209 0.0 0.0 0.00 0.00 0.00 84 1010.3
20260510065348 56 209 0.0 0.0 0.00 0.00 0.00 84 1010.3
20260510065104 56 209 0.0 0.0 0.00 0.00 0.00 83 1010.2
20260510064349 57 209 0.0 0.0 0.00 0.00 0.00 83 1010.2
20260510063851 57 209 0.0 0.0 0.00 0.00 0.00 83 1010.1
20260510063344 57 209 0.0 0.0 0.00 0.00 0.00 83 1010.1
20260510062845 57 209 0.0 0.0 0.00 0.00 0.00 83 1010.0
20260510062346 57 209 0.0 0.0 0.00 0.00 0.00 83 1010.0
20260510061846 57 209 0.0 0.0 0.00 0.00 0.00 83 1010.0
20260510061346 57 209 0.0 0.0 0.00 0.00 0.00 82 1010.1
20260510060844 57 209 0.0 0.0 0.00 0.00 0.00 82 1010.0
20260510060346 58 209 0.0 0.0 0.00 0.00 0.00 82 1010.1
20260510055845 58 209 0.0 0.0 0.00 0.00 0.00 82 1010.1
20260510055834 58 209 0.0 0.0 0.00 0.00 0.00 82 1010.2
20260510054844 58 209 0.0 0.9 0.00 0.00 0.00 82 1010.1
20260510054347 58 209 0.0 0.9 0.00 0.00 0.00 82 1010.2
20260510053845 58 209 0.0 0.0 0.00 0.00 0.00 82 1010.2
20260510053345 58 209 0.0 0.0 0.00 0.00 0.00 81 1010.1
20260510052846 58 209 0.0 0.9 0.00 0.00 0.00 81 1010.1
20260510052833 58 209 0.0 0.9 0.00 0.00 0.00 81 1010.2
20260510051843 58 146 0.0 0.0 0.00 0.00 0.00 81 1010.2
20260510051343 59 146 0.0 0.0 0.00 0.00 0.00 81 1010.1
20260510050843 59 146 0.0 0.0 0.00 0.00 0.00 81 1010.2
20260510050343 59 146 0.0 0.0 0.00 0.00 0.00 81 1010.1
20260510050325 59 147 0.0 0.0 0.00 0.00 0.00 81 1010.1
20260510045343 59 146 0.0 0.0 0.00 0.00 0.00 81 1010.1
20260510044844 59 146 0.0 0.0 0.00 0.00 0.00 81 1010.1
20260510044342 59 146 0.0 0.0 0.00 0.00 0.00 80 1010.1
20260510043839 59 146 0.0 0.0 0.00 0.00 0.00 81 1009.9
20260510043339 59 146 0.0 0.0 0.00 0.00 0.00 80 1010.0
20260510042840 59 146 0.0 0.0 0.00 0.00 0.00 80 1009.9
20260510042338 59 146 0.0 0.9 0.00 0.00 0.00 80 1009.8
20260510041835 60 146 0.0 2.6 0.00 0.00 0.00 80 1009.9
20260510041810 60 213 0.0 2.6 0.00 0.00 0.00 80 1009.9
20260510040831 60 185 0.0 1.7 0.00 0.00 0.00 80 1009.9
20260510040332 60 201 0.0 0.0 0.00 0.00 0.00 79 1010.0
20260510035829 60 201 0.0 0.0 0.00 0.00 0.00 79 1009.9
20260510035550 60 201 0.0 0.0 0.00 0.00 0.00 79 1009.9
20260510034830 60 201 0.0 0.0 0.00 0.00 0.00 79 1010.0
20260510034329 60 201 0.0 0.0 0.00 0.00 0.00 79 1010.0
20260510033830 61 201 0.0 0.0 0.00 0.00 0.00 79 1010.1
20260510033328 61 201 0.0 0.0 0.00 0.00 0.00 79 1009.9
20260510032830 61 201 0.0 0.0 0.00 0.00 0.00 78 1009.9
20260510032330 61 201 0.0 0.0 0.00 0.00 0.00 78 1009.9
20260510031829 61 201 0.0 0.0 0.00 0.00 0.00 78 1009.8
20260510031331 61 201 0.0 0.0 0.00 0.00 0.00 77 1009.8
20260510031101 61 201 0.0 0.0 0.00 0.00 0.00 77 1009.7
20260510030330 62 201 0.0 0.0 0.00 0.00 0.00 77 1009.7
20260510030053 62 201 0.0 0.0 0.00 0.00 0.00 76 1009.6
20260510025326 62 201 0.0 0.0 0.00 0.00 0.00 76 1009.6
20260510024830 62 201 0.0 0.0 0.00 0.00 0.00 76 1009.7
20260510024324 62 201 0.0 0.0 0.00 0.00 0.00 76 1009.6
20260510023824 62 201 0.0 0.0 0.00 0.00 0.00 76 1009.5
20260510023549 62 201 0.0 0.0 0.00 0.00 0.00 75 1009.4
20260510022820 62 201 0.0 0.0 0.00 0.00 0.00 75 1009.4
20260510022313 63 201 0.0 0.0 0.00 0.00 0.00 74 1009.5
20260510021807 63 201 0.0 0.0 0.00 0.00 0.00 74 1009.4
20260510021301 63 201 0.0 0.0 0.00 0.00 0.00 74 1009.4
20260510020755 63 201 0.0 0.0 0.00 0.00 0.00 73 1009.3
20260510020250 63 201 0.0 0.0 0.00 0.00 0.00 73 1009.3
20260510015744 64 201 0.0 0.0 0.00 0.00 0.00 73 1009.2
20260510015246 64 201 0.0 0.0 0.00 0.00 0.00 72 1009.1
20260510014747 64 201 0.0 0.0 0.00 0.00 0.00 73 1009.0
20260510014246 64 201 0.0 0.0 0.00 0.00 0.00 73 1009.0
20260510013745 64 201 0.0 0.0 0.00 0.00 0.00 72 1008.9
20260510013244 65 201 0.0 0.0 0.00 0.00 0.00 72 1008.8
20260510012744 65 201 0.0 0.0 0.00 0.00 0.00 71 1008.8
20260510012241 65 201 0.0 0.0 0.00 0.00 0.00 71 1008.6
20260510011741 65 201 0.0 0.0 0.00 0.00 0.00 71 1008.6
20260510011239 65 201 0.0 0.0 0.00 0.00 0.00 71 1008.5
20260510010739 66 201 0.0 0.0 0.00 0.00 0.00 70 1008.5
20260510010239 66 201 0.0 0.0 0.00 0.00 0.00 70 1008.4
20260510005737 66 201 0.0 0.0 0.00 0.00 0.00 69 1008.5
20260510005500 67 201 0.0 0.0 0.00 0.00 0.00 69 1008.4
20260510004736 67 201 0.0 0.9 0.00 0.00 0.00 69 1008.3
20260510004234 67 201 0.0 0.9 0.00 0.00 0.00 69 1008.2
20260510003734 68 201 0.0 0.0 0.00 0.00 0.00 68 1008.1
20260510003230 68 201 0.0 0.0 0.00 0.00 0.00 68 1008.1
20260510002728 68 201 0.0 0.0 0.00 0.00 0.00 67 1008.1
20260510002228 69 201 0.0 0.0 0.00 0.00 0.00 66 1008.0
20260510001722 69 201 0.0 0.0 0.00 0.00 0.00 66 1008.1
20260510001216 69 201 0.0 0.0 0.00 0.00 0.00 66 1008.0
20260510000710 70 201 0.0 0.0 0.00 0.00 0.00 65 1008.1
20260510000433 70 201 0.0 0.0 0.00 0.00 0.00 64 1008.0
20260509235658 70 201 0.0 0.0 0.00 0.00 0.00 64 1007.9
20260509235153 71 201 0.0 0.0 0.00 0.00 0.00 63 1007.8
20260509234646 71 201 0.0 0.0 0.00 0.00 0.00 61 1007.8
20260509234153 71 201 0.0 0.0 0.00 0.00 0.00 61 1007.8
20260509233635 72 201 0.0 0.0 0.00 0.00 0.00 61 1007.8
20260509233129 72 201 0.0 0.0 0.00 0.00 0.00 61 1007.7
20260509232623 72 201 0.0 0.0 0.00 0.00 0.00 60 1007.7
20260509232117 73 201 0.0 0.0 0.00 0.00 0.00 60 1007.7
20260509231610 73 201 0.0 0.9 0.00 0.00 0.00 59 1007.6
20260509231104 73 201 0.0 0.9 0.00 0.00 0.00 58 1007.7
20260509231036 73 222 0.0 0.0 0.00 0.00 0.00 58 1007.7
20260509230052 74 222 0.0 0.0 0.00 0.00 0.00 59 1007.7
20260509225547 74 222 0.0 0.9 0.00 0.00 0.00 57 1007.7
20260509225041 74 222 0.0 0.9 0.00 0.00 0.00 59 1007.7